[Date Prev][Date Next][Thread Prev][Thread Next] - [Date Index][Thread Index][Author Index]
2 Line ISS Keps 8-31
- Subject: [sarex] 2 Line ISS Keps 8-31
- From: "Dave Larsen PhD" <doc@xxxxxxxxxxx>
- Date: Sat, 31 Aug 2002 04:22:07 -0700
ISS
1 25544U 98067A 02243.15001157 .00033894 00000-0 43124-3 0 996
2 25544 51.6389 36.7649 0015914 202.9586 139.4623 15.58887642215719
----
Via the sarex mailing list at AMSAT.ORG courtesy of AMSAT-NA.
To unsubscribe, send "unsubscribe sarex" to Majordomo@amsat.org
AMSAT Home